TimeEDT,TemperatureF,Dew PointF,Humidity,Sea Level PressureIn,VisibilityMPH,Wind Direction,Wind SpeedMPH,Gust SpeedMPH,PrecipitationIn,Events,Conditions,WindDirDegrees,DateUTC
12:07 AM,48.2,35.6,62,30.17,10.0,SSW,5.8,-,N/A,,Clear,210,2012-10-12 04:07:00
12:28 AM,48.2,35.6,62,30.17,10.0,SSW,4.6,-,N/A,,Clear,210,2012-10-12 04:28:00
12:49 AM,46.4,35.6,66,30.17,10.0,Calm,Calm,-,N/A,,Clear,0,2012-10-12 04:49:00
1:13 AM,48.2,35.6,62,30.16,10.0,Calm,Calm,-,N/A,,Clear,0,2012-10-12 05:13:00
1:34 AM,46.4,35.6,66,30.16,10.0,Calm,Calm,-,N/A,,Clear,0,2012-10-12 05:34:00
1:55 AM,44.6,35.6,71,30.16,10.0,Calm,Calm,-,N/A,,Clear,0,2012-10-12 05:55:00
2:16 AM,44.6,35.6,71,30.16,10.0,WSW,4.6,-,N/A,,Clear,240,2012-10-12 06:16:00
2:37 AM,46.4,37.4,71,30.16,10.0,WSW,6.9,-,N/A,,Clear,250,2012-10-12 06:37:00
2:58 AM,46.4,37.4,71,30.15,10.0,WSW,8.1,-,N/A,,Clear,250,2012-10-12 06:58:00
3:19 AM,46.4,37.4,71,30.14,10.0,WSW,6.9,-,N/A,,Clear,240,2012-10-12 07:19:00
3:40 AM,44.6,37.4,76,30.14,10.0,WSW,6.9,-,N/A,,Clear,250,2012-10-12 07:40:00
4:01 AM,44.6,37.4,76,30.14,10.0,SW,4.6,-,N/A,,Clear,230,2012-10-12 08:01:00
4:25 AM,44.6,37.4,76,30.14,10.0,WSW,5.8,-,N/A,,Clear,240,2012-10-12 08:25:00
4:46 AM,44.6,37.4,76,30.14,10.0,WSW,5.8,-,N/A,,Clear,240,2012-10-12 08:46:00
5:07 AM,44.6,37.4,76,30.14,10.0,Calm,Calm,-,N/A,,Clear,0,2012-10-12 09:07:00
5:49 AM,46.4,35.6,66,30.14,10.0,West,4.6,-,N/A,,Clear,260,2012-10-12 09:49:00
6:10 AM,46.4,37.4,71,30.14,10.0,WSW,3.5,-,N/A,,Clear,240,2012-10-12 10:10:00
6:31 AM,46.4,33.8,62,30.13,10.0,WSW,5.8,-,N/A,,Clear,250,2012-10-12 10:31:00
6:52 AM,46.4,35.6,66,30.14,10.0,WSW,5.8,-,N/A,,Clear,250,2012-10-12 10:52:00
7:13 AM,46.4,35.6,66,30.14,10.0,WSW,3.5,-,N/A,,Clear,240,2012-10-12 11:13:00
7:34 AM,46.4,35.6,66,30.15,10.0,Calm,Calm,-,N/A,,Clear,0,2012-10-12 11:34:00
7:55 AM,46.4,35.6,66,30.15,10.0,WSW,5.8,-,N/A,,Clear,250,2012-10-12 11:55:00
8:19 AM,46.4,35.6,66,30.17,10.0,WSW,5.8,-,N/A,,Clear,240,2012-10-12 12:19:00
8:40 AM,46.4,35.6,66,30.17,10.0,West,5.8,-,N/A,,Clear,260,2012-10-12 12:40:00
9:01 AM,48.2,33.8,58,30.18,10.0,West,6.9,-,N/A,,Clear,260,2012-10-12 13:01:00
9:22 AM,51.8,35.6,54,30.18,10.0,West,9.2,-,N/A,,Clear,260,2012-10-12 13:22:00
9:43 AM,51.8,33.8,50,30.19,10.0,West,10.4,-,N/A,,Clear,280,2012-10-12 13:43:00
10:04 AM,53.6,33.8,47,30.20,10.0,West,10.4,17.3,N/A,,Clear,280,2012-10-12 14:04:00
10:25 AM,53.6,33.8,47,30.20,10.0,NW,10.4,-,N/A,,Clear,310,2012-10-12 14:25:00
10:46 AM,55.4,33.8,44,30.20,10.0,WNW,10.4,17.3,N/A,,Clear,300,2012-10-12 14:46:00
11:07 AM,55.4,33.8,44,30.21,10.0,NW,8.1,16.1,N/A,,Clear,310,2012-10-12 15:07:00
12:10 PM,59.0,35.6,42,30.23,10.0,NW,13.8,19.6,N/A,,Scattered Clouds,310,2012-10-12 16:10:00
12:34 PM,57.2,35.6,44,30.23,10.0,NNW,12.7,20.7,N/A,,Mostly Cloudy,340,2012-10-12 16:34:00
12:55 PM,59.0,35.6,42,30.23,10.0,NW,12.7,20.7,N/A,,Clear,320,2012-10-12 16:55:00
1:16 PM,57.2,37.4,48,30.23,10.0,NNW,13.8,23.0,N/A,,Scattered Clouds,340,2012-10-12 17:16:00
1:37 PM,57.2,37.4,48,30.24,10.0,North,13.8,23.0,N/A,,Scattered Clouds,350,2012-10-12 17:37:00
1:58 PM,55.4,37.4,51,30.25,10.0,NNW,11.5,19.6,N/A,,Mostly Cloudy,340,2012-10-12 17:58:00
2:19 PM,53.6,35.6,51,30.25,10.0,North,12.7,20.7,N/A,,Overcast,350,2012-10-12 18:19:00
2:40 PM,53.6,35.6,51,30.26,10.0,NNW,12.7,19.6,N/A,,Scattered Clouds,340,2012-10-12 18:40:00
3:01 PM,53.6,33.8,47,30.27,10.0,NW,10.4,19.6,N/A,,Scattered Clouds,320,2012-10-12 19:01:00
3:22 PM,53.6,30.2,41,30.27,10.0,North,9.2,19.6,N/A,,Mostly Cloudy,350,2012-10-12 19:22:00
3:43 PM,53.6,26.6,35,30.28,10.0,NNW,9.2,-,N/A,,Scattered Clouds,330,2012-10-12 19:43:00
4:04 PM,55.4,23.0,29,30.28,10.0,NNW,11.5,19.6,N/A,,Clear,330,2012-10-12 20:04:00
4:25 PM,55.4,26.6,33,30.29,10.0,North,10.4,17.3,N/A,,Clear,350,2012-10-12 20:25:00
4:46 PM,55.4,24.8,31,30.29,10.0,NW,6.9,-,N/A,,Clear,320,2012-10-12 20:46:00
5:10 PM,55.4,24.8,31,30.29,10.0,NNW,8.1,-,N/A,,Clear,340,2012-10-12 21:10:00
6:34 PM,51.8,24.8,35,30.32,10.0,North,3.5,-,N/A,,Clear,360,2012-10-12 22:34:00
7:16 PM,48.2,26.6,43,30.33,10.0,NNW,3.5,-,N/A,,Clear,340,2012-10-12 23:16:00
7:37 PM,48.2,26.6,43,30.34,10.0,North,4.6,-,N/A,,Clear,360,2012-10-12 23:37:00
7:58 PM,48.2,26.6,43,30.35,10.0,Calm,Calm,-,N/A,,Clear,0,2012-10-12 23:58:00
8:19 PM,48.2,24.8,40,30.36,10.0,Calm,Calm,-,N/A,,Clear,0,2012-10-13 00:19:00
9:01 PM,44.6,26.6,49,30.38,10.0,NE,3.5,-,N/A,,Clear,40,2012-10-13 01:01:00
9:22 PM,44.6,26.6,49,30.39,10.0,NE,4.6,-,N/A,,Clear,40,2012-10-13 01:22:00
9:46 PM,44.6,26.6,49,30.40,10.0,NE,3.5,-,N/A,,Clear,40,2012-10-13 01:46:00
10:07 PM,44.6,26.6,49,30.41,10.0,NE,3.5,-,N/A,,Clear,40,2012-10-13 02:07:00
10:28 PM,42.8,26.6,53,30.42,10.0,NE,3.5,-,N/A,,Clear,40,2012-10-13 02:28:00
10:49 PM,42.8,26.6,53,30.43,10.0,Calm,Calm,-,N/A,,Clear,0,2012-10-13 02:49:00
11:10 PM,42.8,26.6,53,30.44,10.0,NE,3.5,-,N/A,,Clear,40,2012-10-13 03:10:00
11:31 PM,41.0,26.6,57,30.44,10.0,NNE,3.5,-,N/A,,Clear,30,2012-10-13 03:31:00
11:52 PM,39.2,26.6,61,30.44,10.0,NNE,3.5,-,N/A,,Clear,20,2012-10-13 03:52:00